TimeAST,TemperatureF,Dew PointF,Humidity,Sea Level PressureIn,VisibilityMPH,Wind Direction,Wind SpeedMPH,Gust SpeedMPH,PrecipitationIn,Events,Conditions,WindDirDegrees,DateUTC
12:00 AM,78.8,71.6,78,30.01,-9999.0,ENE,11.5,-,N/A,,Unknown,70,2013-02-11 04:00:00
1:00 AM,78.8,71.6,78,30.01,-9999.0,ENE,9.2,-,N/A,,Unknown,70,2013-02-11 05:00:00
2:00 AM,78,69,68,,,ENE,9.2,,,,Clear,70,2013-02-11 06:00:00
2:00 AM,78.8,69.8,74,29.98,-9999.0,ENE,9.2,-,N/A,,Unknown,60,2013-02-11 06:00:00
3:00 AM,78.8,71.6,78,29.98,-9999.0,ENE,10.4,-,N/A,,Unknown,70,2013-02-11 07:00:00
4:00 AM,77.0,69.8,78,29.95,-9999.0,ENE,9.2,-,N/A,,Unknown,70,2013-02-11 08:00:00
6:00 AM,78.8,69.8,74,29.98,-9999.0,East,12.7,-,N/A,,Unknown,80,2013-02-11 10:00:00
7:00 AM,78.8,71.6,78,29.98,-9999.0,East,10.4,-,N/A,,Unknown,80,2013-02-11 11:00:00
8:00 AM,80.6,69.8,70,30.01,-9999.0,East,17.3,-,N/A,,Unknown,80,2013-02-11 12:00:00
9:00 AM,82.4,71.6,70,30.01,6.2,East,17.3,-,N/A,,Mostly Cloudy,90,2013-02-11 13:00:00
11:00 AM,84.2,71.6,66,30.04,6.2,East,17.3,-,N/A,,Scattered Clouds,80,2013-02-11 15:00:00
12:00 PM,84.2,73.4,70,30.04,6.2,East,20.7,-,N/A,,Scattered Clouds,80,2013-02-11 16:00:00
1:00 PM,84.2,71.6,66,30.01,6.2,East,20.7,-,N/A,,Scattered Clouds,80,2013-02-11 17:00:00
2:00 PM,85,71,55,,6,East,16.1,,,,Clear,80,2013-02-11 18:00:00
2:00 PM,84.2,71.6,66,29.98,-9999.0,East,16.1,-,N/A,,Unknown,80,2013-02-11 18:00:00
3:00 PM,84.2,71.6,66,29.95,6.2,East,17.3,-,N/A,,Scattered Clouds,80,2013-02-11 19:00:00
4:00 PM,84.2,69.8,62,29.95,6.2,East,17.3,-,N/A,,Scattered Clouds,80,2013-02-11 20:00:00
5:00 PM,82,71,61,29.96,19,East,18.4,,,,Partly Cloudy,90,2013-02-11 21:00:00
5:00 PM,82.4,71.6,70,29.95,6.2,East,18.4,-,N/A,,Scattered Clouds,90,2013-02-11 21:00:00
7:00 PM,78.8,68.0,69,29.95,-9999.0,East,12.7,-,N/A,,Unknown,80,2013-02-11 23:00:00
8:00 PM,79,68,60,29.99,19,East,10.4,,,,Partly Cloudy,80,2013-02-12 00:00:00
8:00 PM,78.8,68.0,69,29.98,6.2,ENE,12.7,-,N/A,,Scattered Clouds,70,2013-02-12 00:00:00
9:00 PM,78.8,66.2,65,29.98,-9999.0,East,12.7,-,N/A,,Unknown,80,2013-02-12 01:00:00
11:00 PM,78.8,66.2,65,30.01,-9999.0,East,10.4,-,N/A,,Unknown,80,2013-02-12 03:00:00